User: anonymous   Login
Location: Mount Graham
(32.7016°N, 109.8912°W)
Time: 01:03:50
(UTC-07:00)
Language:

Cosmos 1340 - Orbit

View from above orbital plane
View from above orbital plane
View from above satellite
View from above satellite

Ground track
Ground track

The orbit data is extracted from the following two-line orbital elements,

1 13067U 82013A   17228.59740051  .00000603  00000-0  27275-4 0  9998
2 13067  81.1848  63.9214 0002929 349.5705  10.5464 15.19449990936985
Epoch (UTC): 16 August 2017 14:20:15
Eccentricity: 0.0002929
inclination: 81.1848°
perigee height: 505 km
apogee height: 509 km
right ascension of ascending node: 63.9214°
argument of perigee: 349.5705°
revolutions per day: 15.19449990
mean anomaly at epoch: 10.5464°
orbit number at epoch: 93698

The dashed part of the orbit path shows where the satellite is in the earth's shadow,  

DLR